owner,sensor,date,latitude,longitude,air_pressure(mBar),qcFlag 
COMPS,ioos:station:USF.COMPS:BGC:1,2008-12-01T00:00:00Z,26.4040,-81.8810,1008.38,1111122 
COMPS,ioos:station:USF.COMPS:BGC:1,2008-12-01T00:06:00Z,26.4040,-81.8810,1008.37,1111122 
COMPS,ioos:station:USF.COMPS:BGC:1,2008-12-01T00:12:00Z,26.4040,-81.8810,1008.44,1111122 
COMPS,ioos:station:USF.COMPS:BGC:1,2008-12-01T00:18:00Z,26.4040,-81.8810,1008.44,1111122 
COMPS,ioos:station:USF.COMPS:BGC:1,2008-12-01T00:24:00Z,26.4040,-81.8810,1008.45,1111122 
COMPS,ioos:station:USF.COMPS:BGC:1,2008-12-01T00:30:00Z,26.4040,-81.8810,1008.44,1111122 
COMPS,ioos:station:USF.COMPS:BGC:1,2008-12-01T00:36:00Z,26.4040,-81.8810,1008.44,1111122 
COMPS,ioos:station:USF.COMPS:BGC:1,2008-12-01T00:42:00Z,26.4040,-81.8810,1008.44,1111122 
COMPS,ioos:station:USF.COMPS:BGC:1,2008-12-01T00:48:00Z,26.4040,-81.8810,1008.5,1111122 
COMPS,ioos:station:USF.COMPS:BGC:1,2008-12-01T00:54:00Z,26.4040,-81.8810,1008.72,1111122 
COMPS,ioos:station:USF.COMPS:BGC:1,2008-12-01T01:00:00Z,26.4040,-81.8810,1008.81,1111122 
COMPS,ioos:station:USF.COMPS:BGC:1,2008-12-01T01:06:00Z,26.4040,-81.8810,1008.9,1111122 
COMPS,ioos:station:USF.COMPS:BGC:1,2008-12-01T01:12:00Z,26.4040,-81.8810,1008.82,1111122 
COMPS,ioos:station:USF.COMPS:BGC:1,2008-12-01T01:18:00Z,26.4040,-81.8810,1008.93,1111122 
COMPS,ioos:station:USF.COMPS:BGC:1,2008-12-01T01:24:00Z,26.4040,-81.8810,1009.01,1111122 
COMPS,ioos:station:USF.COMPS:BGC:1,2008-12-01T01:30:00Z,26.4040,-81.8810,1009.18,1111122 
COMPS,ioos:station:USF.COMPS:BGC:1,2008-12-01T01:36:00Z,26.4040,-81.8810,1009.32,1111122 
COMPS,ioos:station:USF.COMPS:BGC:1,2008-12-01T01:42:00Z,26.4040,-81.8810,1009.42,1111122 
COMPS,ioos:station:USF.COMPS:BGC:1,2008-12-01T01:48:00Z,26.4040,-81.8810,1009.44,1111122 
COMPS,ioos:station:USF.COMPS:BGC:1,2008-12-01T01:54:00Z,26.4040,-81.8810,1009.5,1111122 
COMPS,ioos:station:USF.COMPS:BGC:1,2008-12-01T02:00:00Z,26.4040,-81.8810,1009.58,1111122 
COMPS,ioos:station:USF.COMPS:BGC:1,2008-12-01T02:06:00Z,26.4040,-81.8810,1009.77,1111122 
COMPS,ioos:station:USF.COMPS:BGC:1,2008-12-01T02:12:00Z,26.4040,-81.8810,1009.89,1111122 
COMPS,ioos:station:USF.COMPS:BGC:1,2008-12-01T02:18:00Z,26.4040,-81.8810,1009.96,1111122 
COMPS,ioos:station:USF.COMPS:BGC:1,2008-12-01T02:24:00Z,26.4040,-81.8810,1010.12,1111122 
COMPS,ioos:station:USF.COMPS:BGC:1,2008-12-01T02:30:00Z,26.4040,-81.8810,1010.16,1111122 
COMPS,ioos:station:USF.COMPS:BGC:1,2008-12-01T02:36:00Z,26.4040,-81.8810,1010.18,1111122 
COMPS,ioos:station:USF.COMPS:BGC:1,2008-12-01T02:42:00Z,26.4040,-81.8810,1010.13,1111122 
COMPS,ioos:station:USF.COMPS:BGC:1,2008-12-01T02:48:00Z,26.4040,-81.8810,1010.13,1111122 
COMPS,ioos:station:USF.COMPS:BGC:1,2008-12-01T02:54:00Z,26.4040,-81.8810,1010.13,1111122 
COMPS,ioos:station:USF.COMPS:BGC:1,2008-12-01T03:00:00Z,26.4040,-81.8810,1010.29,1111122 
COMPS,ioos:station:USF.COMPS:BGC:1,2008-12-01T03:06:00Z,26.4040,-81.8810,1010.45,1111122 
COMPS,ioos:station:USF.COMPS:BGC:1,2008-12-01T03:12:00Z,26.4040,-81.8810,1010.49,1111122 
COMPS,ioos:station:USF.COMPS:BGC:1,2008-12-01T03:18:00Z,26.4040,-81.8810,1010.4,1111122 
COMPS,ioos:station:USF.COMPS:BGC:1,2008-12-01T03:24:00Z,26.4040,-81.8810,1010.48,1111122 
COMPS,ioos:station:USF.COMPS:BGC:1,2008-12-01T03:30:00Z,26.4040,-81.8810,1010.54,1111122 
COMPS,ioos:station:USF.COMPS:BGC:1,2008-12-01T03:36:00Z,26.4040,-81.8810,1010.65,1111122 
COMPS,ioos:station:USF.COMPS:BGC:1,2008-12-01T03:42:00Z,26.4040,-81.8810,1010.72,1111122 
COMPS,ioos:station:USF.COMPS:BGC:1,2008-12-01T03:48:00Z,26.4040,-81.8810,1010.74,1111122 
COMPS,ioos:station:USF.COMPS:BGC:1,2008-12-01T03:54:00Z,26.4040,-81.8810,1010.85,1111122 
COMPS,ioos:station:USF.COMPS:BGC:1,2008-12-01T04:00:00Z,26.4040,-81.8810,1010.77,1111122 
COMPS,ioos:station:USF.COMPS:BGC:1,2008-12-01T04:06:00Z,26.4040,-81.8810,1010.65,1111122 
COMPS,ioos:station:USF.COMPS:BGC:1,2008-12-01T04:12:00Z,26.4040,-81.8810,1010.56,1111122 
COMPS,ioos:station:USF.COMPS:BGC:1,2008-12-01T04:18:00Z,26.4040,-81.8810,1010.56,1111122 
COMPS,ioos:station:USF.COMPS:BGC:1,2008-12-01T04:24:00Z,26.4040,-81.8810,1010.62,1111122 
COMPS,ioos:station:USF.COMPS:BGC:1,2008-12-01T04:30:00Z,26.4040,-81.8810,1010.62,1111122 
COMPS,ioos:station:USF.COMPS:BGC:1,2008-12-01T04:36:00Z,26.4040,-81.8810,1010.73,1111122 
COMPS,ioos:station:USF.COMPS:BGC:1,2008-12-01T04:42:00Z,26.4040,-81.8810,1010.82,1111122 
COMPS,ioos:station:USF.COMPS:BGC:1,2008-12-01T04:48:00Z,26.4040,-81.8810,1010.85,1111122 
COMPS,ioos:station:USF.COMPS:BGC:1,2008-12-01T04:54:00Z,26.4040,-81.8810,1010.97,1111122 
COMPS,ioos:station:USF.COMPS:BGC:1,2008-12-01T05:00:00Z,26.4040,-81.8810,1010.92,1111122 
COMPS,ioos:station:USF.COMPS:BGC:1,2008-12-01T05:06:00Z,26.4040,-81.8810,1010.92,1111122 
COMPS,ioos:station:USF.COMPS:BGC:1,2008-12-01T05:12:00Z,26.4040,-81.8810,1010.86,1111122 
COMPS,ioos:station:USF.COMPS:BGC:1,2008-12-01T05:18:00Z,26.4040,-81.8810,1010.77,1111122 
COMPS,ioos:station:USF.COMPS:BGC:1,2008-12-01T05:24:00Z,26.4040,-81.8810,1010.77,1111122 
COMPS,ioos:station:USF.COMPS:BGC:1,2008-12-01T05:30:00Z,26.4040,-81.8810,1010.77,1111122 
COMPS,ioos:station:USF.COMPS:BGC:1,2008-12-01T05:36:00Z,26.4040,-81.8810,1010.62,1111122 
COMPS,ioos:station:USF.COMPS:BGC:1,2008-12-01T05:42:00Z,26.4040,-81.8810,1010.53,1111122 
COMPS,ioos:station:USF.COMPS:BGC:1,2008-12-01T05:48:00Z,26.4040,-81.8810,1010.53,1111122 
COMPS,ioos:station:USF.COMPS:BGC:1,2008-12-01T05:54:00Z,26.4040,-81.8810,1010.53,1111122 
COMPS,ioos:station:USF.COMPS:BGC:1,2008-12-01T06:00:00Z,26.4040,-81.8810,1010.5,1111122 
COMPS,ioos:station:USF.COMPS:BGC:1,2008-12-01T06:06:00Z,26.4040,-81.8810,1010.44,1111122 
COMPS,ioos:station:USF.COMPS:BGC:1,2008-12-01T06:12:00Z,26.4040,-81.8810,1010.58,1111122 
COMPS,ioos:station:USF.COMPS:BGC:1,2008-12-01T06:18:00Z,26.4040,-81.8810,1010.7,1111122 
COMPS,ioos:station:USF.COMPS:BGC:1,2008-12-01T06:24:00Z,26.4040,-81.8810,1011.01,1111122 
COMPS,ioos:station:USF.COMPS:BGC:1,2008-12-01T06:30:00Z,26.4040,-81.8810,1011.1,1111122 
COMPS,ioos:station:USF.COMPS:BGC:1,2008-12-01T06:36:00Z,26.4040,-81.8810,1011.05,1111122 
COMPS,ioos:station:USF.COMPS:BGC:1,2008-12-01T06:42:00Z,26.4040,-81.8810,1010.97,1111122 
COMPS,ioos:station:USF.COMPS:BGC:1,2008-12-01T06:48:00Z,26.4040,-81.8810,1011.02,1111122 
COMPS,ioos:station:USF.COMPS:BGC:1,2008-12-01T06:54:00Z,26.4040,-81.8810,1011.02,1111122 
COMPS,ioos:station:USF.COMPS:BGC:1,2008-12-01T07:00:00Z,26.4040,-81.8810,1011.01,1111122 
COMPS,ioos:station:USF.COMPS:BGC:1,2008-12-01T07:06:00Z,26.4040,-81.8810,1011.0,1111122 
COMPS,ioos:station:USF.COMPS:BGC:1,2008-12-01T07:12:00Z,26.4040,-81.8810,1011.02,1111122 
COMPS,ioos:station:USF.COMPS:BGC:1,2008-12-01T07:18:00Z,26.4040,-81.8810,1010.98,1111122 
COMPS,ioos:station:USF.COMPS:BGC:1,2008-12-01T07:24:00Z,26.4040,-81.8810,1010.93,1111122 
COMPS,ioos:station:USF.COMPS:BGC:1,2008-12-01T07:30:00Z,26.4040,-81.8810,1010.88,1111122 
COMPS,ioos:station:USF.COMPS:BGC:1,2008-12-01T07:36:00Z,26.4040,-81.8810,1010.64,1111122 
COMPS,ioos:station:USF.COMPS:BGC:1,2008-12-01T07:42:00Z,26.4040,-81.8810,1010.56,1111122 
COMPS,ioos:station:USF.COMPS:BGC:1,2008-12-01T07:48:00Z,26.4040,-81.8810,1010.56,1111122 
COMPS,ioos:station:USF.COMPS:BGC:1,2008-12-01T07:54:00Z,26.4040,-81.8810,1010.61,1111122 
COMPS,ioos:station:USF.COMPS:BGC:1,2008-12-01T08:00:00Z,26.4040,-81.8810,1010.78,1111122 
COMPS,ioos:station:USF.COMPS:BGC:1,2008-12-01T08:06:00Z,26.4040,-81.8810,1010.85,1111122 
COMPS,ioos:station:USF.COMPS:BGC:1,2008-12-01T08:12:00Z,26.4040,-81.8810,1010.98,1111122 
COMPS,ioos:station:USF.COMPS:BGC:1,2008-12-01T08:18:00Z,26.4040,-81.8810,1010.88,1111122 
COMPS,ioos:station:USF.COMPS:BGC:1,2008-12-01T08:24:00Z,26.4040,-81.8810,1010.92,1111122 
COMPS,ioos:station:USF.COMPS:BGC:1,2008-12-01T08:30:00Z,26.4040,-81.8810,1011.05,1111122 
COMPS,ioos:station:USF.COMPS:BGC:1,2008-12-01T08:36:00Z,26.4040,-81.8810,1011.29,1111122 
COMPS,ioos:station:USF.COMPS:BGC:1,2008-12-01T08:42:00Z,26.4040,-81.8810,1011.61,1111122 
COMPS,ioos:station:USF.COMPS:BGC:1,2008-12-01T08:48:00Z,26.4040,-81.8810,1011.82,1111122 
COMPS,ioos:station:USF.COMPS:BGC:1,2008-12-01T08:54:00Z,26.4040,-81.8810,1011.96,1111122 
COMPS,ioos:station:USF.COMPS:BGC:1,2008-12-01T09:00:00Z,26.4040,-81.8810,1011.97,1111122 
COMPS,ioos:station:USF.COMPS:BGC:1,2008-12-01T09:06:00Z,26.4040,-81.8810,1012.1,1111122 
COMPS,ioos:station:USF.COMPS:BGC:1,2008-12-01T09:12:00Z,26.4040,-81.8810,1012.08,1111122 
COMPS,ioos:station:USF.COMPS:BGC:1,2008-12-01T09:18:00Z,26.4040,-81.8810,1012.2,1111122 
COMPS,ioos:station:USF.COMPS:BGC:1,2008-12-01T09:24:00Z,26.4040,-81.8810,1012.18,1111122 
COMPS,ioos:station:USF.COMPS:BGC:1,2008-12-01T09:30:00Z,26.4040,-81.8810,1012.28,1111122 
COMPS,ioos:station:USF.COMPS:BGC:1,2008-12-01T09:36:00Z,26.4040,-81.8810,1012.46,1111122 
COMPS,ioos:station:USF.COMPS:BGC:1,2008-12-01T09:42:00Z,26.4040,-81.8810,1012.54,1111122 
COMPS,ioos:station:USF.COMPS:BGC:1,2008-12-01T09:48:00Z,26.4040,-81.8810,1012.61,1111122 
COMPS,ioos:station:USF.COMPS:BGC:1,2008-12-01T09:54:00Z,26.4040,-81.8810,1012.37,1111122 
COMPS,ioos:station:USF.COMPS:BGC:1,2008-12-01T10:00:00Z,26.4040,-81.8810,1012.48,1111122 
COMPS,ioos:station:USF.COMPS:BGC:1,2008-12-01T10:06:00Z,26.4040,-81.8810,1012.69,1111122 
COMPS,ioos:station:USF.COMPS:BGC:1,2008-12-01T10:12:00Z,26.4040,-81.8810,1012.62,1111122 
COMPS,ioos:station:USF.COMPS:BGC:1,2008-12-01T10:18:00Z,26.4040,-81.8810,1012.56,1111122 
COMPS,ioos:station:USF.COMPS:BGC:1,2008-12-01T10:24:00Z,26.4040,-81.8810,1012.77,1111122 
COMPS,ioos:station:USF.COMPS:BGC:1,2008-12-01T10:30:00Z,26.4040,-81.8810,1012.78,1111122 
COMPS,ioos:station:USF.COMPS:BGC:1,2008-12-01T10:36:00Z,26.4040,-81.8810,1012.81,1111122 
COMPS,ioos:station:USF.COMPS:BGC:1,2008-12-01T10:42:00Z,26.4040,-81.8810,1012.94,1111122 
COMPS,ioos:station:USF.COMPS:BGC:1,2008-12-01T10:48:00Z,26.4040,-81.8810,1013.02,1111122 
COMPS,ioos:station:USF.COMPS:BGC:1,2008-12-01T10:54:00Z,26.4040,-81.8810,1013.14,1111122 
COMPS,ioos:station:USF.COMPS:BGC:1,2008-12-01T11:00:00Z,26.4040,-81.8810,1013.25,1111122 
COMPS,ioos:station:USF.COMPS:BGC:1,2008-12-01T11:06:00Z,26.4040,-81.8810,1013.36,1111122 
COMPS,ioos:station:USF.COMPS:BGC:1,2008-12-01T11:12:00Z,26.4040,-81.8810,1013.37,1111122 
COMPS,ioos:station:USF.COMPS:BGC:1,2008-12-01T11:18:00Z,26.4040,-81.8810,1013.44,1111122 
COMPS,ioos:station:USF.COMPS:BGC:1,2008-12-01T11:24:00Z,26.4040,-81.8810,1013.54,1111122 
COMPS,ioos:station:USF.COMPS:BGC:1,2008-12-01T11:30:00Z,26.4040,-81.8810,1013.6,1111122 
COMPS,ioos:station:USF.COMPS:BGC:1,2008-12-01T11:36:00Z,26.4040,-81.8810,1013.66,1111122 
COMPS,ioos:station:USF.COMPS:BGC:1,2008-12-01T11:42:00Z,26.4040,-81.8810,1013.8,1111122 
COMPS,ioos:station:USF.COMPS:BGC:1,2008-12-01T11:48:00Z,26.4040,-81.8810,1013.92,1111122 
COMPS,ioos:station:USF.COMPS:BGC:1,2008-12-01T11:54:00Z,26.4040,-81.8810,1014.06,1111122 
COMPS,ioos:station:USF.COMPS:BGC:1,2008-12-01T14:00:00Z,26.4040,-81.8810,1016.93,1111122 
COMPS,ioos:station:USF.COMPS:BGC:1,2008-12-01T14:06:00Z,26.4040,-81.8810,1017.02,1111122 
COMPS,ioos:station:USF.COMPS:BGC:1,2008-12-01T14:12:00Z,26.4040,-81.8810,1017.1,1111122 
COMPS,ioos:station:USF.COMPS:BGC:1,2008-12-01T14:18:00Z,26.4040,-81.8810,1017.14,1111122 
COMPS,ioos:station:USF.COMPS:BGC:1,2008-12-01T14:24:00Z,26.4040,-81.8810,1017.16,1111122 
COMPS,ioos:station:USF.COMPS:BGC:1,2008-12-01T14:30:00Z,26.4040,-81.8810,1017.22,1111122 
COMPS,ioos:station:USF.COMPS:BGC:1,2008-12-01T14:36:00Z,26.4040,-81.8810,1017.29,1111122 
COMPS,ioos:station:USF.COMPS:BGC:1,2008-12-01T14:42:00Z,26.4040,-81.8810,1017.42,1111122 
COMPS,ioos:station:USF.COMPS:BGC:1,2008-12-01T14:48:00Z,26.4040,-81.8810,1017.48,1111122 
COMPS,ioos:station:USF.COMPS:BGC:1,2008-12-01T14:54:00Z,26.4040,-81.8810,1017.6,1111122 
COMPS,ioos:station:USF.COMPS:BGC:1,2008-12-01T15:00:00Z,26.4040,-81.8810,1017.61,1111122 
COMPS,ioos:station:USF.COMPS:BGC:1,2008-12-01T15:06:00Z,26.4040,-81.8810,1017.5,1111122 
COMPS,ioos:station:USF.COMPS:BGC:1,2008-12-01T15:12:00Z,26.4040,-81.8810,1017.46,1111122 
COMPS,ioos:station:USF.COMPS:BGC:1,2008-12-01T15:18:00Z,26.4040,-81.8810,1017.5,1111122 
COMPS,ioos:station:USF.COMPS:BGC:1,2008-12-01T15:24:00Z,26.4040,-81.8810,1017.57,1111122 
COMPS,ioos:station:USF.COMPS:BGC:1,2008-12-01T15:30:00Z,26.4040,-81.8810,1017.58,1111122 
COMPS,ioos:station:USF.COMPS:BGC:1,2008-12-01T15:36:00Z,26.4040,-81.8810,1017.5,1111122 
COMPS,ioos:station:USF.COMPS:BGC:1,2008-12-01T15:42:00Z,26.4040,-81.8810,1017.56,1111122 
COMPS,ioos:station:USF.COMPS:BGC:1,2008-12-01T15:48:00Z,26.4040,-81.8810,1017.61,1111122 
COMPS,ioos:station:USF.COMPS:BGC:1,2008-12-01T15:54:00Z,26.4040,-81.8810,1017.64,1111122 
COMPS,ioos:station:USF.COMPS:BGC:1,2008-12-01T16:00:00Z,26.4040,-81.8810,1017.62,1111122 
COMPS,ioos:station:USF.COMPS:BGC:1,2008-12-01T16:06:00Z,26.4040,-81.8810,1017.77,1111122 
COMPS,ioos:station:USF.COMPS:BGC:1,2008-12-01T16:12:00Z,26.4040,-81.8810,1017.73,1111122 
COMPS,ioos:station:USF.COMPS:BGC:1,2008-12-01T16:18:00Z,26.4040,-81.8810,1017.78,1111122 
COMPS,ioos:station:USF.COMPS:BGC:1,2008-12-01T16:24:00Z,26.4040,-81.8810,1017.76,1111122 
COMPS,ioos:station:USF.COMPS:BGC:1,2008-12-01T16:30:00Z,26.4040,-81.8810,1017.73,1111122 
COMPS,ioos:station:USF.COMPS:BGC:1,2008-12-01T16:36:00Z,26.4040,-81.8810,1017.73,1111122 
COMPS,ioos:station:USF.COMPS:BGC:1,2008-12-01T16:42:00Z,26.4040,-81.8810,1017.65,1111122 
COMPS,ioos:station:USF.COMPS:BGC:1,2008-12-01T16:48:00Z,26.4040,-81.8810,1017.58,1111122 
COMPS,ioos:station:USF.COMPS:BGC:1,2008-12-01T16:54:00Z,26.4040,-81.8810,1017.66,1111122 
COMPS,ioos:station:USF.COMPS:BGC:1,2008-12-01T17:00:00Z,26.4040,-81.8810,1017.72,1111122 
COMPS,ioos:station:USF.COMPS:BGC:1,2008-12-01T17:06:00Z,26.4040,-81.8810,1017.62,1111122 
COMPS,ioos:station:USF.COMPS:BGC:1,2008-12-01T17:12:00Z,26.4040,-81.8810,1017.65,1111122 
COMPS,ioos:station:USF.COMPS:BGC:1,2008-12-01T17:18:00Z,26.4040,-81.8810,1017.72,1111122 
COMPS,ioos:station:USF.COMPS:BGC:1,2008-12-01T17:24:00Z,26.4040,-81.8810,1017.68,1111122 
COMPS,ioos:station:USF.COMPS:BGC:1,2008-12-01T17:30:00Z,26.4040,-81.8810,1017.7,1111122 
COMPS,ioos:station:USF.COMPS:BGC:1,2008-12-01T17:36:00Z,26.4040,-81.8810,1017.58,1111122 
COMPS,ioos:station:USF.COMPS:BGC:1,2008-12-01T17:42:00Z,26.4040,-81.8810,1017.45,1111122 
COMPS,ioos:station:USF.COMPS:BGC:1,2008-12-01T17:48:00Z,26.4040,-81.8810,1017.49,1111122 
COMPS,ioos:station:USF.COMPS:BGC:1,2008-12-01T17:54:00Z,26.4040,-81.8810,1017.56,1111122 
COMPS,ioos:station:USF.COMPS:BGC:1,2008-12-01T18:00:00Z,26.4040,-81.8810,1017.44,1111122 
COMPS,ioos:station:USF.COMPS:BGC:1,2008-12-01T18:06:00Z,26.4040,-81.8810,1017.38,1111122 
COMPS,ioos:station:USF.COMPS:BGC:1,2008-12-01T18:12:00Z,26.4040,-81.8810,1017.33,1111122 
COMPS,ioos:station:USF.COMPS:BGC:1,2008-12-01T18:18:00Z,26.4040,-81.8810,1017.3,1111122 
COMPS,ioos:station:USF.COMPS:BGC:1,2008-12-01T18:24:00Z,26.4040,-81.8810,1017.18,1111122 
COMPS,ioos:station:USF.COMPS:BGC:1,2008-12-01T18:30:00Z,26.4040,-81.8810,1017.17,1111122 
COMPS,ioos:station:USF.COMPS:BGC:1,2008-12-01T18:36:00Z,26.4040,-81.8810,1017.24,1111122 
COMPS,ioos:station:USF.COMPS:BGC:1,2008-12-01T18:42:00Z,26.4040,-81.8810,1017.18,1111122 
COMPS,ioos:station:USF.COMPS:BGC:1,2008-12-01T18:48:00Z,26.4040,-81.8810,1017.14,1111122 
COMPS,ioos:station:USF.COMPS:BGC:1,2008-12-01T18:54:00Z,26.4040,-81.8810,1017.2,1111122 
COMPS,ioos:station:USF.COMPS:BGC:1,2008-12-01T19:00:00Z,26.4040,-81.8810,1017.16,1111122 
COMPS,ioos:station:USF.COMPS:BGC:1,2008-12-01T19:06:00Z,26.4040,-81.8810,1017.2,1111122 
COMPS,ioos:station:USF.COMPS:BGC:1,2008-12-01T19:12:00Z,26.4040,-81.8810,1017.32,1111122 
COMPS,ioos:station:USF.COMPS:BGC:1,2008-12-01T19:18:00Z,26.4040,-81.8810,1017.36,1111122 
COMPS,ioos:station:USF.COMPS:BGC:1,2008-12-01T19:24:00Z,26.4040,-81.8810,1017.41,1111122 
COMPS,ioos:station:USF.COMPS:BGC:1,2008-12-01T19:30:00Z,26.4040,-81.8810,1017.38,1111122 
COMPS,ioos:station:USF.COMPS:BGC:1,2008-12-01T19:36:00Z,26.4040,-81.8810,1017.32,1111122 
COMPS,ioos:station:USF.COMPS:BGC:1,2008-12-01T19:42:00Z,26.4040,-81.8810,1017.25,1111122 
COMPS,ioos:station:USF.COMPS:BGC:1,2008-12-01T19:48:00Z,26.4040,-81.8810,1017.18,1111122 
COMPS,ioos:station:USF.COMPS:BGC:1,2008-12-01T19:54:00Z,26.4040,-81.8810,1017.32,1111122 
COMPS,ioos:station:USF.COMPS:BGC:1,2008-12-01T20:00:00Z,26.4040,-81.8810,1017.42,1111122 
COMPS,ioos:station:USF.COMPS:BGC:1,2008-12-01T20:06:00Z,26.4040,-81.8810,1017.34,1111122 
COMPS,ioos:station:USF.COMPS:BGC:1,2008-12-01T20:12:00Z,26.4040,-81.8810,1017.33,1111122 
COMPS,ioos:station:USF.COMPS:BGC:1,2008-12-01T20:18:00Z,26.4040,-81.8810,1017.25,1111122 
COMPS,ioos:station:USF.COMPS:BGC:1,2008-12-01T20:24:00Z,26.4040,-81.8810,1017.29,1111122 
COMPS,ioos:station:USF.COMPS:BGC:1,2008-12-01T20:30:00Z,26.4040,-81.8810,1017.38,1111122 
COMPS,ioos:station:USF.COMPS:BGC:1,2008-12-01T20:36:00Z,26.4040,-81.8810,1017.33,1111122 
COMPS,ioos:station:USF.COMPS:BGC:1,2008-12-01T20:42:00Z,26.4040,-81.8810,1017.28,1111122 
COMPS,ioos:station:USF.COMPS:BGC:1,2008-12-01T20:48:00Z,26.4040,-81.8810,1017.3,1111122 
COMPS,ioos:station:USF.COMPS:BGC:1,2008-12-01T20:54:00Z,26.4040,-81.8810,1017.36,1111122 
COMPS,ioos:station:USF.COMPS:BGC:1,2008-12-01T21:00:00Z,26.4040,-81.8810,1017.56,1111122 
COMPS,ioos:station:USF.COMPS:BGC:1,2008-12-01T21:06:00Z,26.4040,-81.8810,1017.52,1111122 
COMPS,ioos:station:USF.COMPS:BGC:1,2008-12-01T21:12:00Z,26.4040,-81.8810,1017.54,1111122 
COMPS,ioos:station:USF.COMPS:BGC:1,2008-12-01T21:18:00Z,26.4040,-81.8810,1017.6,1111122 
COMPS,ioos:station:USF.COMPS:BGC:1,2008-12-01T21:24:00Z,26.4040,-81.8810,1017.7,1111122 
COMPS,ioos:station:USF.COMPS:BGC:1,2008-12-01T21:30:00Z,26.4040,-81.8810,1017.74,1111122 
COMPS,ioos:station:USF.COMPS:BGC:1,2008-12-01T21:36:00Z,26.4040,-81.8810,1017.76,1111122 
COMPS,ioos:station:USF.COMPS:BGC:1,2008-12-01T21:42:00Z,26.4040,-81.8810,1017.86,1111122 
COMPS,ioos:station:USF.COMPS:BGC:1,2008-12-01T21:48:00Z,26.4040,-81.8810,1017.98,1111122 
COMPS,ioos:station:USF.COMPS:BGC:1,2008-12-01T21:54:00Z,26.4040,-81.8810,1018.14,1111122 
COMPS,ioos:station:USF.COMPS:BGC:1,2008-12-01T22:00:00Z,26.4040,-81.8810,1018.29,1111122 
COMPS,ioos:station:USF.COMPS:BGC:1,2008-12-01T22:06:00Z,26.4040,-81.8810,1018.32,1111122 
COMPS,ioos:station:USF.COMPS:BGC:1,2008-12-01T22:12:00Z,26.4040,-81.8810,1018.45,1111122 
COMPS,ioos:station:USF.COMPS:BGC:1,2008-12-01T22:18:00Z,26.4040,-81.8810,1018.62,1111122 
COMPS,ioos:station:USF.COMPS:BGC:1,2008-12-01T22:24:00Z,26.4040,-81.8810,1018.6,1111122 
COMPS,ioos:station:USF.COMPS:BGC:1,2008-12-01T22:30:00Z,26.4040,-81.8810,1018.69,1111122 
COMPS,ioos:station:USF.COMPS:BGC:1,2008-12-01T22:36:00Z,26.4040,-81.8810,1018.8,1111122 
COMPS,ioos:station:USF.COMPS:BGC:1,2008-12-01T22:42:00Z,26.4040,-81.8810,1018.86,1111122 
COMPS,ioos:station:USF.COMPS:BGC:1,2008-12-01T22:48:00Z,26.4040,-81.8810,1018.88,1111122 
COMPS,ioos:station:USF.COMPS:BGC:1,2008-12-01T22:54:00Z,26.4040,-81.8810,1018.81,1111122 
COMPS,ioos:station:USF.COMPS:BGC:1,2008-12-01T23:00:00Z,26.4040,-81.8810,1018.81,1111122 
COMPS,ioos:station:USF.COMPS:BGC:1,2008-12-01T23:06:00Z,26.4040,-81.8810,1018.82,1111122 
COMPS,ioos:station:USF.COMPS:BGC:1,2008-12-01T23:12:00Z,26.4040,-81.8810,1018.84,1111122 
COMPS,ioos:station:USF.COMPS:BGC:1,2008-12-01T23:18:00Z,26.4040,-81.8810,1018.82,1111122 
COMPS,ioos:station:USF.COMPS:BGC:1,2008-12-01T23:24:00Z,26.4040,-81.8810,1018.93,1111122 
COMPS,ioos:station:USF.COMPS:BGC:1,2008-12-01T23:30:00Z,26.4040,-81.8810,1019.06,1111122 
COMPS,ioos:station:USF.COMPS:BGC:1,2008-12-01T23:36:00Z,26.4040,-81.8810,1019.13,1111122 
COMPS,ioos:station:USF.COMPS:BGC:1,2008-12-01T23:42:00Z,26.4040,-81.8810,1019.28,1111122 
COMPS,ioos:station:USF.COMPS:BGC:1,2008-12-01T23:48:00Z,26.4040,-81.8810,1019.42,1111122 
COMPS,ioos:station:USF.COMPS:BGC:1,2008-12-01T23:54:00Z,26.4040,-81.8810,1019.58,1111122 
COMPS,ioos:station:USF.COMPS:BGC:1,2008-12-02T01:00:00Z,26.4040,-81.8810,1020.53,1111122 
COMPS,ioos:station:USF.COMPS:BGC:1,2008-12-02T01:06:00Z,26.4040,-81.8810,1020.52,1111122 
COMPS,ioos:station:USF.COMPS:BGC:1,2008-12-02T01:12:00Z,26.4040,-81.8810,1020.7,1111122 
COMPS,ioos:station:USF.COMPS:BGC:1,2008-12-02T01:18:00Z,26.4040,-81.8810,1020.45,1111122 
COMPS,ioos:station:USF.COMPS:BGC:1,2008-12-02T01:24:00Z,26.4040,-81.8810,1020.54,1111122 
COMPS,ioos:station:USF.COMPS:BGC:1,2008-12-02T01:30:00Z,26.4040,-81.8810,1020.58,1111122 
COMPS,ioos:station:USF.COMPS:BGC:1,2008-12-02T01:36:00Z,26.4040,-81.8810,1020.6,1111122 
COMPS,ioos:station:USF.COMPS:BGC:1,2008-12-02T01:42:00Z,26.4040,-81.8810,1020.48,1111122 
COMPS,ioos:station:USF.COMPS:BGC:1,2008-12-02T01:48:00Z,26.4040,-81.8810,1020.22,1111122 
COMPS,ioos:station:USF.COMPS:BGC:1,2008-12-02T01:54:00Z,26.4040,-81.8810,1020.46,1111122 
COMPS,ioos:station:USF.COMPS:BGC:1,2008-12-02T02:00:00Z,26.4040,-81.8810,1020.7,1111122 
COMPS,ioos:station:USF.COMPS:BGC:1,2008-12-02T02:06:00Z,26.4040,-81.8810,1020.68,1111122 
COMPS,ioos:station:USF.COMPS:BGC:1,2008-12-02T02:12:00Z,26.4040,-81.8810,1020.7,1111122 
COMPS,ioos:station:USF.COMPS:BGC:1,2008-12-02T02:18:00Z,26.4040,-81.8810,1020.85,1111122 
COMPS,ioos:station:USF.COMPS:BGC:1,2008-12-02T02:24:00Z,26.4040,-81.8810,1020.94,1111122 
COMPS,ioos:station:USF.COMPS:BGC:1,2008-12-02T02:30:00Z,26.4040,-81.8810,1020.93,1111122 
COMPS,ioos:station:USF.COMPS:BGC:1,2008-12-02T02:36:00Z,26.4040,-81.8810,1021.0,1111122 
COMPS,ioos:station:USF.COMPS:BGC:1,2008-12-02T02:42:00Z,26.4040,-81.8810,1020.86,1111122 
COMPS,ioos:station:USF.COMPS:BGC:1,2008-12-02T02:48:00Z,26.4040,-81.8810,1020.8,1111122 
COMPS,ioos:station:USF.COMPS:BGC:1,2008-12-02T02:54:00Z,26.4040,-81.8810,1020.96,1111122 
COMPS,ioos:station:USF.COMPS:BGC:1,2008-12-02T03:00:00Z,26.4040,-81.8810,1020.92,1111122 
COMPS,ioos:station:USF.COMPS:BGC:1,2008-12-02T03:06:00Z,26.4040,-81.8810,1021.0,1111122 
COMPS,ioos:station:USF.COMPS:BGC:1,2008-12-02T03:12:00Z,26.4040,-81.8810,1020.89,1111122 
COMPS,ioos:station:USF.COMPS:BGC:1,2008-12-02T03:18:00Z,26.4040,-81.8810,1020.66,1111122 
COMPS,ioos:station:USF.COMPS:BGC:1,2008-12-02T03:24:00Z,26.4040,-81.8810,1020.76,1111122 
COMPS,ioos:station:USF.COMPS:BGC:1,2008-12-02T03:30:00Z,26.4040,-81.8810,1020.69,1111122 
COMPS,ioos:station:USF.COMPS:BGC:1,2008-12-02T03:36:00Z,26.4040,-81.8810,1020.86,1111122 
COMPS,ioos:station:USF.COMPS:BGC:1,2008-12-02T03:42:00Z,26.4040,-81.8810,1020.97,1111122 
COMPS,ioos:station:USF.COMPS:BGC:1,2008-12-02T03:48:00Z,26.4040,-81.8810,1020.77,1111122 
COMPS,ioos:station:USF.COMPS:BGC:1,2008-12-02T03:54:00Z,26.4040,-81.8810,1020.66,1111122 
COMPS,ioos:station:USF.COMPS:BGC:1,2008-12-02T04:00:00Z,26.4040,-81.8810,1020.85,1111122 
COMPS,ioos:station:USF.COMPS:BGC:1,2008-12-02T04:06:00Z,26.4040,-81.8810,1020.76,1111122 
COMPS,ioos:station:USF.COMPS:BGC:1,2008-12-02T04:12:00Z,26.4040,-81.8810,1020.65,1111122 
COMPS,ioos:station:USF.COMPS:BGC:1,2008-12-02T04:18:00Z,26.4040,-81.8810,1020.62,1111122 
COMPS,ioos:station:USF.COMPS:BGC:1,2008-12-02T04:24:00Z,26.4040,-81.8810,1020.48,1111122 
COMPS,ioos:station:USF.COMPS:BGC:1,2008-12-02T04:30:00Z,26.4040,-81.8810,1020.4,1111122 
COMPS,ioos:station:USF.COMPS:BGC:1,2008-12-02T04:36:00Z,26.4040,-81.8810,1020.34,1111122 
COMPS,ioos:station:USF.COMPS:BGC:1,2008-12-02T04:42:00Z,26.4040,-81.8810,1020.41,1111122 
COMPS,ioos:station:USF.COMPS:BGC:1,2008-12-02T04:48:00Z,26.4040,-81.8810,1020.24,1111122 
COMPS,ioos:station:USF.COMPS:BGC:1,2008-12-02T04:54:00Z,26.4040,-81.8810,1020.12,1111122 
COMPS,ioos:station:USF.COMPS:BGC:1,2008-12-02T05:00:00Z,26.4040,-81.8810,1020.4,1111122 
COMPS,ioos:station:USF.COMPS:BGC:1,2008-12-02T05:06:00Z,26.4040,-81.8810,1020.57,1111122 
COMPS,ioos:station:USF.COMPS:BGC:1,2008-12-02T05:12:00Z,26.4040,-81.8810,1020.61,1111122 
COMPS,ioos:station:USF.COMPS:BGC:1,2008-12-02T05:18:00Z,26.4040,-81.8810,1020.77,1111122 
COMPS,ioos:station:USF.COMPS:BGC:1,2008-12-02T05:24:00Z,26.4040,-81.8810,1021.02,1111122 
COMPS,ioos:station:USF.COMPS:BGC:1,2008-12-02T05:30:00Z,26.4040,-81.8810,1021.17,1111122 